Location: *
(43.0167°S, 179.9000°E)
Time: 20:06:33
(UTC+00:00)

Lacrosse 5 - Pass Details

Date: 12 August 2024
Orbit: 714 x 724 km, 57.0° (Epoch: 09 March)

Event Time Altitude Azimuth Distance (km) Brightness Sun altitude
Exits shadow 17:57:27 - 224° (SW) 2,344 4.0 -11.4°
Reaches altitude 10° 17:57:43 10° 223° (SW) 2,246 4.0 -11.3°
Maximum altitude 18:02:53 67° 140° (SE) 794 2.2 -10.4°
Drops below altitude 10° 18:08:00 10° 56° (ENE) 2,223 5.6 -9.5°
Sets 18:10:23 0° 53° (NE) 3,137 6.5 -9.0°
